Miscellaneous Local Product
Issued by NWS Hastings, NE

Home | Current Version | Previous Version | Graphics & Text | Print | Product List | Glossary On
Versions: 1 2 3 4 5 6 7 8 9 10 11 12 13 14 15 16 17 18 19 20 21 22 23 24 25 26 27 28 29 30 31 32 33 34 35 36 37 38 39 40 41 42 43 44 45 46 47 48 49 50
389
AXUS43 KGID 182302
MISGRI

GID CWA HOURLY WEATHER ROUNDUP
NATIONAL WEATHER SERVICE HASTINGS NE
500 PM CST SAT FEB 18 2017

NOTE: "FAIR" INDICATES FEW OR NO CLOUDS BELOW 12,000 FEET WITH NO
SIGNIFICANT WEATHER AND/OR OBSTRUCTIONS TO VISIBILITY.

...SOUTH CENTRAL NEBRASKA...

CITY           SKY/WX    TMP DP  RH WIND       PRES   REMARKS
GRAND ISLAND   SUNNY     63  30  28 SE12      29.76R
HASTINGS       SUNNY     65  33  30 SE12      29.75S
KEARNEY        SUNNY     63  34  34 SE8       29.75S
ORD            CLOUDY    61  26  26 S8        29.75R
YORK           SUNNY     64  30  27 SE13      29.76S
AURORA         SUNNY     64  31  28 SE10      29.76R
LEXINGTON      MOSUNNY   63  32  31 S10       29.75R
HOLDREGE       MOSUNNY   63  32  31 SE6       29.74S
HEBRON         SUNNY     69  35  29 SE10      29.75S

...NEBRASKA PANHANDLE...

CITY           SKY/WX    TMP DP  RH WIND       PRES   REMARKS
CHADRON        SUNNY     67  29  24 S10       29.61S
ALLIANCE       SUNNY     63  25  23 S18       29.66S
SCOTTSBLUFF    SUNNY     63  23  21 SE12      29.65S
SIDNEY         CLOUDY    63  25  23 S16       29.69S

...WESTERN AND NORTH CENTRAL NEBRASKA...

CITY           SKY/WX    TMP DP  RH WIND       PRES   REMARKS
VALENTINE      SUNNY     62  26  25 S9        29.69F
AINSWORTH      SUNNY     60  29  32 S12       29.72S
ONEILL         SUNNY     61  29  30 S9        29.77R
BROKEN BOW     CLOUDY    60  32  34 S8        29.75R
IMPERIAL       SUNNY     62  28  27 S14       29.71F
NORTH PLATTE   MOSUNNY   62  30  29 S9        29.73F
MCCOOK         CLOUDY    65  35  33 SE8       29.73S

...EASTERN NEBRASKA...

CITY           SKY/WX    TMP DP  RH WIND       PRES   REMARKS
NORFOLK        SUNNY     60  33  36 SE10      29.76R
SO SIOUX CITY  CLEAR     61  38  42 E6        29.76F
TEKAMAH        SUNNY     61  42  49 S3        29.77S
COLUMBUS       SUNNY     63  34  34 E9        29.77S
ALBION         MOSUNNY   62  33  33 SE6       29.77R
OMAHA EPPLEY   PTSUNNY   65  32  29 E6        29.77S
OFFUTT AFB     SUNNY     65  31  28 E5        29.77S
MILLARD        SUNNY     67  34  29 SE5       29.77S
LINCOLN        SUNNY     66  30  26 SE9       29.78R
NEBRASKA CITY  SUNNY     66  21  18 SE6       29.77S
BEATRICE       SUNNY     69  35  28 SE9       29.76R
FALLS CITY     SUNNY     68  34  28 SE5       29.77R

...NORTHERN KANSAS...

CITY           SKY/WX    TMP DP  RH WIND       PRES   REMARKS
GOODLAND       SUNNY     64  27  24 S14       29.73S
HILL CITY      CLOUDY    66  37  34 CALM      29.74R
NORTON         CLEAR     63  30  29 SE9       29.74R
PHILLIPSBURG   SUNNY     64  36  34 SE6       29.73S
SMITH CENTER   SUNNY     63  39  42 SE6       29.74S
HAYS           MOSUNNY   70  34  26 S15       29.72R
RUSSELL        MOSUNNY   71  36  27 S14       29.72R
CONCORDIA      SUNNY     68  43  40 S7        29.74R
SALINA         SUNNY     73  42  32 S9        29.74R
TOPEKA         SUNNY     73  43  33 SE5       29.75S



USA.gov is the U.S. government's official web portal to all federal, state and local government web resources and services.